******** Week 151 almanac for PRN-1 ******** ID: 1 Health: 0 Eccentricity: 0.01147127151 Time of Applicability(s): 319488 Orbital Inclination(rad): 0.986969231 Rate of Right Ascen(r/s): -7.840326581e-09 SQRT(A) (m 1/2): 5153.623535 Right Ascen at Week(rad): -2.16238261 Argument of Perigee(rad): 0.8832553522 Mean Anom(rad): -2.249710908 Af0(s): 0.0003308630249 Af1(s/s): -1.091394e-11 week: 151 ******** Week 151 almanac for PRN-2 ******** ID: 2 Health: 0 Eccentricity: 0.02061510086 Time of Applicability(s): 319488 Orbital Inclination(rad): 0.9653137366 Rate of Right Ascen(r/s): -7.920329913e-09 SQRT(A) (m 1/2): 5153.653809 Right Ascen at Week(rad): -2.25196207 Argument of Perigee(rad): -1.435951701 Mean Anom(rad): -2.112078451 Af0(s): -0.0005147595581 Af1(s/s): 0 week: 151 ******** Week 151 almanac for PRN-3 ******** ID: 3 Health: 0 Eccentricity: 0.003904342651 Time of Applicability(s): 319488 Orbital Inclination(rad): 0.9725042716 Rate of Right Ascen(r/s): -8.228914196e-09 SQRT(A) (m 1/2): 5153.615723 Right Ascen at Week(rad): -1.127032463 Argument of Perigee(rad): 0.9526129304 Mean Anom(rad): 2.886333533 Af0(s): -0.0001145584961 Af1(s/s): -1.818989e-11 week: 151 ******** Week 151 almanac for PRN-4 ******** ID: 4 Health: 0 Eccentricity: 0.00173330307 Time of Applicability(s): 319488 Orbital Inclination(rad): 0.961658548 Rate of Right Ascen(r/s): -7.703178011e-09 SQRT(A) (m 1/2): 5153.60791 Right Ascen at Week(rad): -0.0457445355 Argument of Perigee(rad): -3.037091712 Mean Anom(rad): -0.4880189852 Af0(s): -0.0001469664917 Af1(s/s): 3.637979e-12 week: 151 ******** Week 151 almanac for PRN-5 ******** ID: 5 Health: 0 Eccentricity: 0.00586271286 Time of Applicability(s): 319488 Orbital Inclination(rad): 0.9594834112 Rate of Right Ascen(r/s): -8.377491813e-09 SQRT(A) (m 1/2): 5153.617676 Right Ascen at Week(rad): -1.167651121 Argument of Perigee(rad): 1.008954142 Mean Anom(rad): 0.4061420116 Af0(s): -5.803292236e-05 Af1(s/s): 0 week: 151 ******** Week 151 almanac for PRN-6 ******** ID: 6 Health: 0 Eccentricity: 0.002690792084 Time of Applicability(s): 319488 Orbital Inclination(rad): 0.9863460513 Rate of Right Ascen(r/s): -7.828897533e-09 SQRT(A) (m 1/2): 5153.633789 Right Ascen at Week(rad): -2.170652474 Argument of Perigee(rad): -0.9344407258 Mean Anom(rad): -1.944333383 Af0(s): 0.0001725914185 Af1(s/s): 1.091394e-11 week: 151 ******** Week 151 almanac for PRN-7 ******** ID: 7 Health: 0 Eccentricity: 0.01561737061 Time of Applicability(s): 319488 Orbital Inclination(rad): 0.9509206825 Rate of Right Ascen(r/s): -8.046049436e-09 SQRT(A) (m 1/2): 5153.631348 Right Ascen at Week(rad): 0.9726984913 Argument of Perigee(rad): -2.288655145 Mean Anom(rad): -2.921055952 Af0(s): 0.0002479588501 Af1(s/s): 3.637979e-12 week: 151 ******** Week 151 almanac for PRN-8 ******** ID: 8 Health: 0 Eccentricity: 0.007358551025 Time of Applicability(s): 319488 Orbital Inclination(rad): 0.9648403598 Rate of Right Ascen(r/s): -7.691748963e-09 SQRT(A) (m 1/2): 5153.684082 Right Ascen at Week(rad): 3.04117983 Argument of Perigee(rad): 0.1172457919 Mean Anom(rad): -0.003039124536 Af0(s): -4.59741333e-05 Af1(s/s): 0 week: 151 ******** Week 151 almanac for PRN-9 ******** ID: 9 Health: 0 Eccentricity: 0.002210617065 Time of Applicability(s): 319488 Orbital Inclination(rad): 0.9546417844 Rate of Right Ascen(r/s): -7.783181343e-09 SQRT(A) (m 1/2): 5153.570801 Right Ascen at Week(rad): -0.09879907368 Argument of Perigee(rad): 1.879985211 Mean Anom(rad): 0.3770079864 Af0(s): -0.0002781058228 Af1(s/s): 3.637979e-12 week: 151 ******** Week 151 almanac for PRN-10 ******** ID: 10 Health: 0 Eccentricity: 0.007539749145 Time of Applicability(s): 319488 Orbital Inclination(rad): 0.9723245082 Rate of Right Ascen(r/s): -8.228914196e-09 SQRT(A) (m 1/2): 5153.625 Right Ascen at Week(rad): -1.129815425 Argument of Perigee(rad): -2.505515312 Mean Anom(rad): 1.99311929 Af0(s): -0.0002645396851 Af1(s/s): -1.091394e-11 week: 151 ******** Week 151 almanac for PRN-11 ******** ID: 11 Health: 255 Eccentricity: 0.0002751350403 Time of Applicability(s): 319488 Orbital Inclination(rad): 0.9620600196 Rate of Right Ascen(r/s): -8.091765626e-09 SQRT(A) (m 1/2): 5153.726562 Right Ascen at Week(rad): -2.118969006 Argument of Perigee(rad): 2.788778572 Mean Anom(rad): -0.05902080966 Af0(s): -5.803292236e-05 Af1(s/s): 1.091394e-11 week: 151 ******** Week 151 almanac for PRN-12 ******** ID: 12 Health: 0 Eccentricity: 0.008720397949 Time of Applicability(s): 319488 Orbital Inclination(rad): 0.9698317894 Rate of Right Ascen(r/s): -8.034620388e-09 SQRT(A) (m 1/2): 5153.531738 Right Ascen at Week(rad): 2.085933367 Argument of Perigee(rad): 1.252450373 Mean Anom(rad): 2.716380371 Af0(s): -0.0001416907715 Af1(s/s): -7.275958e-12 week: 151 ******** Week 151 almanac for PRN-13 ******** ID: 13 Health: 0 Eccentricity: 0.005806922913 Time of Applicability(s): 319488 Orbital Inclination(rad): 0.9691127359 Rate of Right Ascen(r/s): -7.611745631e-09 SQRT(A) (m 1/2): 5153.636719 Right Ascen at Week(rad): 0.05421625899 Argument of Perigee(rad): 0.9518242186 Mean Anom(rad): -0.5473581259 Af0(s): 0.0002132898315 Af1(s/s): 7.275958e-12 week: 151 ******** Week 151 almanac for PRN-14 ******** ID: 14 Health: 0 Eccentricity: 0.001497268677 Time of Applicability(s): 319488 Orbital Inclination(rad): 0.9532276458 Rate of Right Ascen(r/s): -8.263201338e-09 SQRT(A) (m 1/2): 5153.584961 Right Ascen at Week(rad): 2.054386767 Argument of Perigee(rad): 3.020212305 Mean Anom(rad): 2.779763438 Af0(s): -7.084538574e-05 Af1(s/s): -3.637979e-12 week: 151 ******** Week 151 almanac for PRN-15 ******** ID: 15 Health: 0 Eccentricity: 0.01393985748 Time of Applicability(s): 319488 Orbital Inclination(rad): 0.9304576185 Rate of Right Ascen(r/s): -8.080336578e-09 SQRT(A) (m 1/2): 5153.697754 Right Ascen at Week(rad): -0.2051980185 Argument of Perigee(rad): 1.07822446 Mean Anom(rad): -0.9897868725 Af0(s): -6.330864258e-05 Af1(s/s): 3.637979e-12 week: 151 ******** Week 151 almanac for PRN-16 ******** ID: 16 Health: 0 Eccentricity: 0.01279306412 Time of Applicability(s): 319488 Orbital Inclination(rad): 0.9697778604 Rate of Right Ascen(r/s): -8.023191341e-09 SQRT(A) (m 1/2): 5153.551758 Right Ascen at Week(rad): 2.104548987 Argument of Perigee(rad): 0.7132036948 Mean Anom(rad): 0.8614009946 Af0(s): -0.0003760834839 Af1(s/s): -3.637979e-12 week: 151 ******** Week 151 almanac for PRN-17 ******** ID: 17 Health: 0 Eccentricity: 0.01355886459 Time of Applicability(s): 319488 Orbital Inclination(rad): 0.9800123885 Rate of Right Ascen(r/s): -7.486026109e-09 SQRT(A) (m 1/2): 5153.728516 Right Ascen at Week(rad): 3.123255667 Argument of Perigee(rad): -1.495231295 Mean Anom(rad): -0.08931318516 Af0(s): 0.000459741333 Af1(s/s): 3.637979e-12 week: 151 ******** Week 151 almanac for PRN-18 ******** ID: 18 Health: 0 Eccentricity: 0.002115726471 Time of Applicability(s): 319488 Orbital Inclination(rad): 0.9707545747 Rate of Right Ascen(r/s): -8.023191341e-09 SQRT(A) (m 1/2): 5153.568359 Right Ascen at Week(rad): -2.154792476 Argument of Perigee(rad): 3.091772359 Mean Anom(rad): -2.02621148 Af0(s): 0.0001808818359 Af1(s/s): -7.275958e-12 week: 151 ******** Week 151 almanac for PRN-19 ******** ID: 19 Health: 0 Eccentricity: 0.00899887085 Time of Applicability(s): 319488 Orbital Inclination(rad): 0.9787840054 Rate of Right Ascen(r/s): -7.486026109e-09 SQRT(A) (m 1/2): 5153.649414 Right Ascen at Week(rad): -3.115092163 Argument of Perigee(rad): 2.014303654 Mean Anom(rad): 2.328104591 Af0(s): 9.948500976e-05 Af1(s/s): 3.637979e-12 week: 151 ******** Week 151 almanac for PRN-20 ******** ID: 20 Health: 0 Eccentricity: 0.005106449127 Time of Applicability(s): 319488 Orbital Inclination(rad): 0.9416688609 Rate of Right Ascen(r/s): -8.583214668e-09 SQRT(A) (m 1/2): 5153.696777 Right Ascen at Week(rad): -1.282009464 Argument of Perigee(rad): -3.138299989 Mean Anom(rad): -1.252251884 Af0(s): 0.0004084914795 Af1(s/s): 0 week: 151 ******** Week 151 almanac for PRN-21 ******** ID: 21 Health: 0 Eccentricity: 0.02458143234 Time of Applicability(s): 319488 Orbital Inclination(rad): 0.9595673008 Rate of Right Ascen(r/s): -7.931758961e-09 SQRT(A) (m 1/2): 5153.527344 Right Ascen at Week(rad): -2.253694165 Argument of Perigee(rad): -0.9939461476 Mean Anom(rad): 0.1112997438 Af0(s): 0.0001258636108 Af1(s/s): 0 week: 151 ******** Week 151 almanac for PRN-22 ******** ID: 22 Health: 0 Eccentricity: 0.01299905777 Time of Applicability(s): 319488 Orbital Inclination(rad): 0.9618023587 Rate of Right Ascen(r/s): -7.680319916e-09 SQRT(A) (m 1/2): 5153.622559 Right Ascen at Week(rad): 0.002557508497 Argument of Perigee(rad): -1.870363001 Mean Anom(rad): -0.1994418455 Af0(s): 0.0001748524414 Af1(s/s): 7.275958e-12 week: 151 ******** Week 151 almanac for PRN-23 ******** ID: 23 Health: 0 Eccentricity: 0.001999855041 Time of Applicability(s): 319488 Orbital Inclination(rad): 0.9673630391 Rate of Right Ascen(r/s): -8.297488481e-09 SQRT(A) (m 1/2): 5153.646973 Right Ascen at Week(rad): -1.154759466 Argument of Perigee(rad): 2.983831944 Mean Anom(rad): -2.986708907 Af0(s): -3.014697266e-06 Af1(s/s): -3.637979e-12 week: 151 ******** Week 151 almanac for PRN-24 ******** ID: 24 Health: 0 Eccentricity: 0.01235532761 Time of Applicability(s): 319488 Orbital Inclination(rad): 0.934478326 Rate of Right Ascen(r/s): -8.160339911e-09 SQRT(A) (m 1/2): 5153.636719 Right Ascen at Week(rad): 0.8896792713 Argument of Perigee(rad): 0.8100205028 Mean Anom(rad): -1.955139034 Af0(s): 0.0002140435059 Af1(s/s): -3.637979e-12 week: 151 ******** Week 151 almanac for PRN-25 ******** ID: 25 Health: 0 Eccentricity: 0.01054763794 Time of Applicability(s): 319488 Orbital Inclination(rad): 0.957236369 Rate of Right Ascen(r/s): -8.217485148e-09 SQRT(A) (m 1/2): 5153.640137 Right Ascen at Week(rad): 2.008991647 Argument of Perigee(rad): 0.9859174659 Mean Anom(rad): 2.450675499 Af0(s): 0.0002313780151 Af1(s/s): 3.637979e-12 week: 151 ******** Week 151 almanac for PRN-26 ******** ID: 26 Health: 0 Eccentricity: 0.006909370422 Time of Applicability(s): 319488 Orbital Inclination(rad): 0.9380735934 Rate of Right Ascen(r/s): -8.446066098e-09 SQRT(A) (m 1/2): 5153.63916 Right Ascen at Week(rad): 1.961687664 Argument of Perigee(rad): 0.3774015933 Mean Anom(rad): 1.796023731 Af0(s): 0.0001484738403 Af1(s/s): 3.637979e-12 week: 151 ******** Week 151 almanac for PRN-27 ******** ID: 27 Health: 0 Eccentricity: 0.01032590866 Time of Applicability(s): 319488 Orbital Inclination(rad): 0.9735588834 Rate of Right Ascen(r/s): -7.577458489e-09 SQRT(A) (m 1/2): 5153.610352 Right Ascen at Week(rad): 3.060718986 Argument of Perigee(rad): 0.644313876 Mean Anom(rad): -0.03088746717 Af0(s): 0.0001107901245 Af1(s/s): 1.455192e-11 week: 151 ******** Week 151 almanac for PRN-29 ******** ID: 29 Health: 0 Eccentricity: 0.001876354218 Time of Applicability(s): 319488 Orbital Inclination(rad): 0.9820317304 Rate of Right Ascen(r/s): -7.486026109e-09 SQRT(A) (m 1/2): 5153.706543 Right Ascen at Week(rad): 3.136291508 Argument of Perigee(rad): 2.244052856 Mean Anom(rad): 0.1013768056 Af0(s): -0.0003843739014 Af1(s/s): -3.637979e-12 week: 151 ******** Week 151 almanac for PRN-30 ******** ID: 30 Health: 0 Eccentricity: 0.005572795868 Time of Applicability(s): 319488 Orbital Inclination(rad): 0.9360722279 Rate of Right Ascen(r/s): -8.217485148e-09 SQRT(A) (m 1/2): 5153.512695 Right Ascen at Week(rad): 0.9855957644 Argument of Perigee(rad): -2.738236976 Mean Anom(rad): -2.874487876 Af0(s): -0.0004084914795 Af1(s/s): -3.637979e-12 week: 151 ******** Week 151 almanac for PRN-31 ******** ID: 31 Health: 0 Eccentricity: 0.0104432106 Time of Applicability(s): 319488 Orbital Inclination(rad): 0.9551331376 Rate of Right Ascen(r/s): -8.011762293e-09 SQRT(A) (m 1/2): 5153.640625 Right Ascen at Week(rad): 0.990853843 Argument of Perigee(rad): 0.3793479063 Mean Anom(rad): 2.907810013 Af0(s): -0.0001318930054 Af1(s/s): 0 week: 151 ******** Week 151 almanac for PRN-32 ******** ID: 32 Health: 0 Eccentricity: 0.005704879761 Time of Applicability(s): 319488 Orbital Inclination(rad): 0.9584887206 Rate of Right Ascen(r/s): -7.737465153e-09 SQRT(A) (m 1/2): 5153.531738 Right Ascen at Week(rad): -0.08753315325 Argument of Perigee(rad): -2.331838052 Mean Anom(rad): 0.5937823916 Af0(s): -6.104761963e-05 Af1(s/s): -7.275958e-12 week: 151